Miscellaneous Local Product
Issued by NWS Hastings, NE

Home | Current Version | Previous Version | Text Only | Print | Product List | Glossary On
Versions: 1 2 3 4 5 6 7 8 9 10 11 12 13 14 15 16 17 18 19 20 21 22 23 24 25 26 27 28 29 30 31 32 33 34 35 36 37 38 39 40 41 42 43 44 45 46 47 48 49 50
167
AXUS43 KGID 200402
MISGRI

GID CWA HOURLY WEATHER ROUNDUP
NATIONAL WEATHER SERVICE HASTINGS NE
1000 PM CST THU JAN 19 2017

NOTE: "FAIR" INDICATES FEW OR NO CLOUDS BELOW 12,000 FEET WITH NO
SIGNIFICANT WEATHER AND/OR OBSTRUCTIONS TO VISIBILITY.

...SOUTH CENTRAL NEBRASKA...

CITY           SKY/WX    TMP DP  RH WIND       PRES   REMARKS
GRAND ISLAND   FOG       38  38 100 SE7       29.57F VSB 3/4 WCI  33
HASTINGS       FOG       39  39 100 S5        29.58F VSB 1/2
KEARNEY        CLOUDY    37  36  93 S3        29.57R
ORD            CLOUDY    40  37  89 S6        29.55S
YORK           FOG       39  39 100 SE9       29.59F VSB 1/2 WCI  33
AURORA         FOG       38  38 100 SE6       29.58F VSB 1/4 WCI  33
LEXINGTON      FOG       37  35  95 CALM      29.57R VSB 1/2
HOLDREGE       CLOUDY    39  38  97 SW3       29.56S FOG
HEBRON         FOG       39  39  99 SE3       29.61F VSB 3/4

...NEBRASKA PANHANDLE...

CITY           SKY/WX    TMP DP  RH WIND       PRES   REMARKS
CHADRON        CLOUDY    30  23  75 W5        29.50R WCI  25
ALLIANCE       CLOUDY    23  19  85 CALM      29.48F
SCOTTSBLUFF    CLOUDY    31  24  75 NW5       29.52S WCI  26
SIDNEY         CLOUDY    27  22  81 W6        29.52F WCI  20

...WESTERN AND NORTH CENTRAL NEBRASKA...

CITY           SKY/WX    TMP DP  RH WIND       PRES   REMARKS
VALENTINE      CLEAR     32  29  88 S9        29.46F FOG     WCI  24
AINSWORTH      CLOUDY    36  36 100 SW17      29.48F FOG     WCI  25
ONEILL         CLOUDY    41  40  94 S13       29.53S
BROKEN BOW     CLOUDY    40  38  93 SW12      29.54R WCI  33
IMPERIAL       FOG       34  34 100 S7        29.54F VSB 1/4 WCI  28
NORTH PLATTE   CLOUDY    38  36  92 SW7       29.55F WCI  33
MCCOOK         FOG       34  34 100 CALM      29.57S VSB 1/4

...EASTERN NEBRASKA...

CITY           SKY/WX    TMP DP  RH WIND       PRES   REMARKS
NORFOLK        CLOUDY    38  37  97 SE6       29.57F WCI  33
SO SIOUX CITY  FOG       39  38  96 SE9       29.62F VSB 3/4 WCI  33
TEKAMAH        FOG       36  35  96 S3        29.64F VSB 1/4
COLUMBUS       CLOUDY    39  37  93 SE6       29.60F WCI  35
ALBION         CLOUDY   N/A N/A N/A S7        29.57F
OMAHA EPPLEY   FOG       39  36  89 CALM      29.64F VSB 1/2
OFFUTT AFB     FOG       39  39 100 E3        29.64F VSB 1/2
MILLARD        CLOUDY    42  41  97 CALM      29.64F FOG
LINCOLN        CLOUDY    40  40 100 SE7       29.63F FOG
NEBRASKA CITY  FOG       40  40 100 CALM      29.65F VSB 1/2
BEATRICE       FOG       40  40 100 E5        29.63F VSB 3/4
FALLS CITY     FOG       42  42 100 CALM      29.64F VSB 1/4

...NORTHERN KANSAS...

CITY           SKY/WX    TMP DP  RH WIND       PRES   REMARKS
GOODLAND       FOG       33  33 100 S9        29.54F VSB 1   WCI  25
HILL CITY      FOG       40  40 100 SW3       29.58S VSB 1/4
NORTON         FOG       37  36  93 SW5       29.57S VSB 1/4 WCI  34
PHILLIPSBURG   FOG       43  43 100 SE6       29.58S VSB 1/4
SMITH CENTER   FOG       39  39 100 SE7       29.59S VSB 1/2 WCI  34
HAYS           FOG       43  42  97 SE6       29.58S VSB 1/4
RUSSELL        FOG       43  43 100 E9        29.57S VSB 1/2
CONCORDIA      FOG       41  41 100 E5        29.60F VSB 1/4
SALINA         CLOUDY    45  43  93 CALM      29.62R FOG
TOPEKA         CLOUDY    46  43  89 NE3       29.63F FOG



USA.gov is the U.S. government's official web portal to all federal, state and local government web resources and services.